FW8796 Weather Reports


Display with metric or nautical units.
time (UTC)temp
F
wind
direction
speed
MPH
gust
MPH
rain 1hr
in
rain 24hr
in
rain mn
in
humidity
%
barometer
mb
20260506013605 23 276 0.0 0.0 0.00 0.00 0.00 90 1015.8
20260506012604 23 276 0.0 0.0 0.00 0.00 0.00 90 1015.8
20260506012104 23 276 0.0 0.0 0.00 0.00 0.00 90 1015.8
20260506011605 23 276 0.0 0.0 0.00 0.00 0.00 90 1015.8
20260506010604 23 276 0.0 0.0 0.00 0.00 0.00 90 1015.9
20260506010104 23 276 0.0 0.0 0.00 0.00 0.00 89 1015.9
20260506005604 23 276 0.0 0.0 0.00 0.00 0.00 89 1015.9
20260506004604 24 276 0.0 0.0 0.00 0.00 0.00 89 1015.8
20260506004104 24 276 0.0 0.0 0.00 0.00 0.00 89 1015.8
20260506002604 24 276 0.0 0.0 0.00 0.00 0.00 88 1015.8
20260506002104 25 276 0.0 0.0 0.00 0.00 0.00 88 1015.7
20260506001605 25 276 0.0 0.0 0.00 0.00 0.00 88 1015.7
20260506001104 25 276 0.0 0.0 0.00 0.00 0.00 88 1015.7
20260506000604 25 276 0.0 0.0 0.00 0.00 0.00 87 1015.7
20260506000104 25 276 0.0 0.0 0.00 0.00 0.00 87 1015.6
20260505235605 26 276 0.0 0.0 0.00 0.00 0.00 87 1015.6
20260505235104 26 276 0.0 0.0 0.00 0.00 0.00 86 1015.7
20260505234604 26 276 0.0 0.0 0.00 0.00 0.00 86 1015.6
20260505234105 26 276 0.0 0.0 0.00 0.00 0.00 85 1015.5
20260505233605 27 276 0.0 0.0 0.00 0.00 0.00 85 1015.4
20260505233104 27 276 0.0 0.0 0.00 0.00 0.00 84 1015.4
20260505232105 28 276 0.0 0.0 0.00 0.00 0.00 82 1015.5
20260505231605 28 276 0.0 3.0 0.00 0.00 0.00 82 1015.4
20260505231104 28 276 1.0 3.0 0.00 0.00 0.00 83 1015.4
20260505230604 28 277 0.0 0.0 0.00 0.00 0.00 82 1015.4
20260505225604 28 277 0.0 3.0 0.00 0.00 0.00 82 1015.5
20260505225105 29 277 0.0 3.0 0.00 0.00 0.00 82 1015.4
20260505224604 29 277 0.0 0.0 0.00 0.00 0.00 81 1015.4
20260505224104 29 277 0.0 0.0 0.00 0.00 0.00 80 1015.4
20260505223605 30 277 0.0 0.0 0.00 0.00 0.00 78 1015.4
20260505222604 30 277 2.0 3.0 0.00 0.00 0.00 79 1015.3
20260505222104 30 279 1.0 3.0 0.00 0.00 0.00 79 1015.3
20260505221604 30 277 1.0 3.0 0.00 0.00 0.00 79 1015.4
20260505221104 30 278 0.0 0.0 0.00 0.00 0.00 78 1015.4
20260505220604 31 277 0.0 0.0 0.00 0.00 0.00 78 1015.3
20260505220104 31 277 1.0 3.0 0.00 0.00 0.00 76 1015.4
20260505215604 31 277 1.0 3.0 0.00 0.00 0.00 76 1015.4
20260505215105 32 277 1.0 3.0 0.00 0.00 0.00 77 1015.5
20260505214604 31 277 2.0 5.0 0.00 0.00 0.00 78 1015.5
20260505214104 31 268 1.0 3.0 0.00 0.00 0.00 79 1015.4
20260505213604 31 266 0.0 3.0 0.00 0.00 0.00 79 1015.4
20260505213105 31 264 0.0 3.0 0.00 0.00 0.00 79 1015.5
20260505212604 31 264 0.0 2.0 0.00 0.00 0.00 80 1015.5
20260505212104 31 264 0.0 0.0 0.00 0.00 0.00 80 1015.6
20260505211605 31 265 0.0 0.0 0.00 0.00 0.00 79 1015.5
20260505211104 31 264 0.0 0.0 0.00 0.00 0.00 79 1015.5
20260505210604 31 264 0.0 0.0 0.00 0.00 0.00 79 1015.5
20260505210104 31 264 1.0 3.0 0.00 0.00 0.00 79 1015.5
20260505205604 31 262 2.0 3.0 0.00 0.00 0.00 78 1015.4
20260505205104 32 177 0.0 3.0 0.00 0.00 0.00 77 1015.3
20260505204605 33 158 0.0 3.0 0.00 0.00 0.00 78 1015.3
20260505204104 33 151 3.0 7.0 0.00 0.00 0.00 77 1015.3
20260505203105 32 253 0.0 0.0 0.00 0.00 0.00 76 1015.1
20260505202604 32 254 0.0 0.0 0.00 0.00 0.00 76 1015.1
20260505202104 32 254 0.0 0.0 0.00 0.00 0.00 77 1015.2
20260505201104 32 254 0.0 0.0 0.00 0.00 0.00 76 1015.2
20260505200604 32 254 0.0 0.0 0.00 0.00 0.00 76 1015.2
20260505200104 32 254 0.0 0.0 0.00 0.00 0.00 75 1015.2
20260505195605 32 256 1.0 3.0 0.00 0.00 0.00 75 1015.1
20260505195104 33 253 0.0 0.0 0.00 0.00 0.00 75 1015.1
20260505194604 33 253 0.0 0.0 0.00 0.00 0.00 74 1015.0
20260505194105 33 253 0.0 0.0 0.00 0.00 0.00 73 1015.1
20260505193604 33 253 0.0 0.0 0.00 0.00 0.00 73 1015.0
20260505193104 34 253 0.0 0.0 0.00 0.00 0.00 72 1015.0
20260505192105 34 253 1.0 3.0 0.00 0.00 0.00 70 1015.0
20260505191604 34 226 0.0 3.0 0.00 0.00 0.00 69 1015.0
20260505191104 34 226 4.0 8.0 0.00 0.00 0.00 69 1014.9
20260505190605 34 195 2.0 7.0 0.00 0.00 0.00 69 1014.8
20260505190104 34 288 1.0 5.0 0.00 0.00 0.00 69 1014.8
20260505185605 35 275 0.0 6.0 0.00 0.00 0.00 69 1014.8
20260505185104 35 278 2.0 3.0 0.00 0.00 0.00 68 1014.8
20260505184604 35 233 0.0 3.0 0.00 0.00 0.00 68 1014.7
20260505184105 35 239 3.0 10.0 0.00 0.00 0.00 68 1014.6
20260505183604 35 198 3.0 12.0 0.00 0.00 0.00 68 1014.5
20260505183105 35 221 2.0 7.0 0.00 0.00 0.00 68 1014.5
20260505182104 35 247 2.0 12.0 0.00 0.00 0.00 69 1014.4
20260505181105 36 256 4.0 10.0 0.00 0.00 0.00 68 1014.4
20260505180604 36 207 4.0 12.0 0.00 0.00 0.00 69 1014.4
20260505180104 36 198 2.0 7.0 0.00 0.00 0.00 69 1014.5
20260505175605 36 212 2.0 10.0 0.00 0.00 0.00 68 1014.5
20260505175104 36 240 4.0 10.0 0.00 0.00 0.00 69 1014.5
20260505174604 37 204 1.0 10.0 0.00 0.00 0.00 68 1014.4
20260505174105 37 294 1.0 13.0 0.00 0.00 0.00 68 1014.4
20260505173604 37 239 7.0 14.0 0.00 0.00 0.00 69 1014.4
20260505173104 36 204 2.0 12.0 0.00 0.00 0.00 70 1014.4
20260505172604 36 211 6.0 15.0 0.00 0.00 0.00 70 1014.4
20260505172105 36 214 6.0 16.0 0.00 0.00 0.00 71 1014.4
20260505171604 36 219 6.0 15.0 0.00 0.00 0.00 70 1014.4
20260505171104 37 208 9.0 16.0 0.00 0.00 0.00 68 1014.4
20260505170604 37 230 5.0 13.0 0.00 0.00 0.00 66 1014.3
20260505170104 37 223 8.0 16.0 0.00 0.00 0.00 66 1014.3
20260505165604 38 236 6.0 13.0 0.00 0.00 0.00 67 1014.3
20260505165104 38 224 7.0 12.0 0.00 0.00 0.00 66 1014.3
20260505164105 38 219 7.0 15.0 0.00 0.00 0.00 65 1014.3
20260505163604 38 203 2.0 7.0 0.00 0.00 0.00 67 1014.2
20260505163105 38 206 5.0 12.0 0.00 0.00 0.00 66 1014.2
20260505162605 39 227 9.0 14.0 0.00 0.00 0.00 65 1014.2
20260505162104 39 222 7.0 16.0 0.00 0.00 0.00 65 1014.1
20260505161604 39 184 5.0 13.0 0.00 0.00 0.00 65 1014.2
20260505160104 36 224 3.0 7.0 0.00 0.00 0.00 71 1014.3
20260505153104 38 217 6.0 12.0 0.00 0.00 0.00 71 1014.5
20260505152604 38 222 3.0 12.0 0.00 0.00 0.00 72 1014.5
20260505152104 38 188 5.0 10.0 0.00 0.00 0.00 74 1014.4
20260505151104 37 222 6.0 13.0 0.00 0.00 0.00 73 1014.5
20260505150604 38 233 7.0 12.0 0.00 0.00 0.00 74 1014.5
20260505150105 38 229 7.0 13.0 0.00 0.00 0.00 73 1014.5
20260505140604 38 261 7.0 14.0 0.00 0.00 0.00 67 1014.3
20260505140104 38 246 9.0 15.0 0.00 0.00 0.00 67 1014.3
20260505130104 38 239 9.0 14.0 0.00 0.00 0.00 63 1014.3
20260505124604 39 223 4.0 10.0 0.00 0.00 0.00 63 1014.2
20260505123604 39 228 6.0 15.0 0.00 0.00 0.00 60 1014.1
20260505123104 39 257 8.0 13.0 0.00 0.00 0.00 59 1014.1
20260505122604 39 171 3.0 13.0 0.00 0.00 0.00 58 1014.1
20260505122104 40 184 7.0 13.0 0.00 0.00 0.00 57 1014.0
20260505121605 41 171 7.0 17.0 0.00 0.00 0.00 59 1014.0
20260505121105 40 232 5.0 12.0 0.00 0.00 0.00 59 1014.1
20260505120604 40 237 6.0 12.0 0.00 0.00 0.00 62 1014.0
20260505120104 39 235 9.0 17.0 0.00 0.00 0.00 61 1014.1
20260505115604 38 229 4.0 10.0 0.00 0.00 0.00 60 1014.2
20260505115105 39 204 6.0 13.0 0.00 0.00 0.00 60 1014.1
20260505114604 39 194 6.0 14.0 0.00 0.00 0.00 58 1014.1
20260505114104 39 225 6.0 13.0 0.00 0.00 0.00 58 1014.0
20260505113104 40 221 6.0 12.0 0.00 0.00 0.00 58 1014.0
20260505112604 40 227 0.0 3.0 0.00 0.00 0.00 64 1013.9
20260505112104 39 276 1.0 3.0 0.00 0.00 0.00 62 1013.8
20260505111604 38 222 2.0 9.0 0.00 0.00 0.00 61 1013.9
20260505111104 38 164 2.0 6.0 0.00 0.00 0.00 61 1013.9
20260505110604 37 196 1.0 9.0 0.00 0.00 0.00 63 1014.0
20260505110104 37 227 6.0 10.0 0.00 0.00 0.00 64 1014.0
20260505102104 39 228 3.0 13.0 0.00 0.00 0.00 64 1014.1
20260505101604 38 213 3.0 12.0 0.00 0.00 0.00 64 1014.0
20260505100604 37 213 3.0 10.0 0.00 0.00 0.00 64 1014.0
20260505100104 36 226 3.0 12.0 0.00 0.00 0.00 63 1014.0
20260505095604 37 234 7.0 12.0 0.00 0.00 0.00 60 1013.9
20260505094604 37 228 1.0 6.0 0.00 0.00 0.00 64 1013.8
20260505094105 36 277 2.0 8.0 0.00 0.00 0.00 64 1013.9
20260505093605 36 293 0.0 8.0 0.00 0.00 0.00 63 1014.0
20260505092604 36 305 0.0 8.0 0.00 0.00 0.00 64 1014.2
20260505092105 36 349 6.0 9.0 0.00 0.00 0.00 63 1014.1
20260505091605 36 161 4.0 12.0 0.00 0.00 0.00 62 1014.1
20260505091105 36 329 5.0 9.0 0.00 0.00 0.00 63 1014.1
20260505090604 36 301 1.0 9.0 0.00 0.00 0.00 61 1014.0
20260505090104 36 224 2.0 10.0 0.00 0.00 0.00 62 1013.9
20260505085605 37 354 3.0 6.0 0.00 0.00 0.00 65 1013.9
20260505085104 36 240 2.0 7.0 0.00 0.00 0.00 65 1013.9
20260505084605 36 287 4.0 10.0 0.00 0.00 0.00 63 1013.9
20260505084104 36 283 2.0 12.0 0.00 0.00 0.00 66 1013.9
20260505083604 36 233 6.0 12.0 0.00 0.00 0.00 65 1013.8
20260505083105 35 235 6.0 10.0 0.00 0.00 0.00 64 1013.8
20260505082604 36 217 5.0 12.0 0.00 0.00 0.00 63 1013.8
20260505081605 36 279 3.0 8.0 0.00 0.00 0.00 62 1013.7
20260505081104 36 298 5.0 10.0 0.00 0.00 0.00 67 1013.7
20260505080604 36 326 4.0 12.0 0.00 0.00 0.00 66 1013.6
20260505080105 36 229 7.0 10.0 0.00 0.00 0.00 65 1013.5
20260505075604 35 236 1.0 10.0 0.00 0.00 0.00 70 1013.5
20260505075105 35 230 5.0 12.0 0.00 0.00 0.00 67 1013.4
20260505074604 35 167 3.0 10.0 0.00 0.00 0.00 67 1013.4
20260505074104 35 251 4.0 7.0 0.00 0.00 0.00 69 1013.4
20260505073605 34 233 1.0 9.0 0.00 0.00 0.00 73 1013.3
20260505073104 34 234 3.0 10.0 0.00 0.00 0.00 72 1013.4
20260505072605 34 254 5.0 12.0 0.00 0.00 0.00 72 1013.4
20260505072105 34 230 7.0 12.0 0.00 0.00 0.00 71 1013.4
20260505071604 34 307 1.0 7.0 0.00 0.00 0.00 72 1013.4
20260505071104 34 326 5.0 9.0 0.00 0.00 0.00 70 1013.5
20260505070604 34 305 3.0 7.0 0.00 0.00 0.00 74 1013.5
20260505065104 33 216 4.0 8.0 0.00 0.00 0.00 75 1013.6
20260505064605 33 219 4.0 8.0 0.00 0.00 0.00 73 1013.6
20260505064104 33 297 6.0 12.0 0.00 0.00 0.00 72 1013.7
20260505063604 33 233 7.0 12.0 0.00 0.00 0.00 72 1013.6
20260505063104 33 270 1.0 6.0 0.00 0.00 0.00 75 1013.6
20260505062605 33 254 5.0 10.0 0.00 0.00 0.00 74 1013.6
20260505062104 33 237 2.0 7.0 0.00 0.00 0.00 73 1013.6
20260505061604 33 302 7.0 12.0 0.00 0.00 0.00 73 1013.6
20260505061104 33 348 2.0 7.0 0.00 0.00 0.00 72 1013.7
20260505060604 33 292 0.0 0.0 0.00 0.00 0.00 74 1013.7
20260505060105 32 291 1.0 8.0 0.00 0.00 0.00 74 1013.7
20260505055105 32 299 3.0 6.0 0.00 0.00 0.00 75 1013.6
20260505054604 31 263 0.0 10.0 0.00 0.00 0.00 77 1013.7
20260505054105 31 297 0.0 0.0 0.00 0.00 0.00 79 1013.7
20260505053604 30 297 0.0 0.0 0.00 0.00 0.00 81 1013.6
20260505053105 30 297 0.0 0.0 0.00 0.00 0.00 81 1013.5
20260505052605 30 296 0.0 0.0 0.00 0.00 0.00 81 1013.5
20260505052104 30 297 0.0 0.0 0.00 0.00 0.00 81 1013.5
20260505051605 29 296 0.0 0.0 0.00 0.00 0.00 80 1013.5
20260505051104 29 296 0.0 0.0 0.00 0.00 0.00 80 1013.4
20260505050604 29 296 0.0 0.0 0.00 0.00 0.00 80 1013.3
20260505050105 29 297 0.0 2.0 0.00 0.00 0.00 79 1013.3
20260505041604 29 296 2.0 5.0 0.00 0.00 0.00 80 1013.2
20260505041105 29 296 1.0 5.0 0.00 0.00 0.00 80 1013.1
20260505040604 29 296 0.0 0.0 0.00 0.00 0.00 80 1013.1
20260505035604 30 296 0.0 0.0 0.00 0.00 0.00 80 1013.1
20260505035104 30 296 0.0 0.0 0.00 0.00 0.00 80 1013.0
20260505034604 30 296 0.0 0.0 0.00 0.00 0.00 80 1013.0
20260505034104 29 296 0.0 2.0 0.00 0.00 0.00 81 1013.0
20260505033605 29 296 2.0 5.0 0.00 0.00 0.00 83 1013.0
20260505033104 28 283 0.0 3.0 0.00 0.00 0.00 84 1013.0
20260505032604 27 286 1.0 3.0 0.00 0.00 0.00 85 1012.9
20260505032105 27 280 0.0 0.0 0.00 0.00 0.00 84 1012.9
20260505031604 27 280 0.0 0.0 0.00 0.00 0.00 84 1012.9
20260505031104 27 280 0.0 0.0 0.00 0.00 0.00 83 1012.8
20260505030605 28 280 0.0 0.0 0.00 0.00 0.00 83 1012.8
20260505025604 28 280 0.0 0.0 0.00 0.00 0.00 83 1012.8
20260505025104 28 280 0.0 0.0 0.00 0.00 0.00 82 1012.8
20260505024604 28 280 0.0 1.0 0.00 0.00 0.00 81 1012.8
20260505024104 28 280 0.0 0.0 0.00 0.00 0.00 81 1012.8
20260505023604 29 280 0.0 0.0 0.00 0.00 0.00 80 1012.7
20260505023105 29 280 0.0 1.0 0.00 0.00 0.00 80 1012.7
20260505022604 29 280 1.0 3.0 0.00 0.00 0.00 80 1012.7
20260505022104 29 278 0.0 0.0 0.00 0.00 0.00 80 1012.8
20260505021605 28 278 0.0 0.0 0.00 0.00 0.00 82 1012.8
20260505021105 28 278 0.0 3.0 0.00 0.00 0.00 82 1012.8
20260505020604 28 278 0.0 3.0 0.00 0.00 0.00 82 1012.8
20260505020104 28 278 0.0 2.0 0.00 0.00 0.00 81 1012.8
20260505015605 29 278 0.0 0.0 0.00 0.00 0.00 80 1012.7
20260505015104 29 278 0.0 0.0 0.00 0.00 0.00 79 1012.7
20260505014105 30 278 0.0 0.0 0.00 0.00 0.00 78 1012.7